Weather Roundup
Issued by NWS

Home | Current Version | Previous Version | Graphics & Text | Print | Product List | Glossary Off
Versions: 1 2 3 4 5 6 7 8 9 10 11 12 13 14 15 16 17 18 19 20 21 22 23 24 25 26 27 28 29 30 31 32 33 34 35 36 37 38 39 40 41 42 43 44 45 46 47 48 49 50

490
NZUS93 KARX 241359
HRRWXR

CURRENT HOURLY OBSERVATIONS ACROSS
MUCH OF THE UPPER MISSISSIPPI VALLEY
NATIONAL WEATHER SERVICE LA CROSSE WI
900 AM CDT THU MAY 24 2018


...SOUTHEAST MINNESOTA...


CITY           SKY/WX    TMP DP  RH WIND       PRES   REMARKS
ROCHESTER      FAIR      74  65  73 S17G24    30.10F
ROCHESTER/MAYO FAIR      73  63  71 S9        30.10S
WINONA         FAIR      73  61  64 SE3       30.07F
AUSTIN         FAIR      73  64  73 S9        30.09F
ALBERT LEA     FAIR      72  63  73 S8        30.08S
DODGE CENTER   FAIR      73  64  73 S17       30.09F
PRESTON        FAIR      73  62  68 S15       30.12F
OWATONNA       FAIR      75  64  69 S13       30.07S
FARIBAULT      FAIR      77  64  65 CALM      30.06S
$$

...ELSEWHERE IN MINNESOTA...


CITY           SKY/WX    TMP DP  RH WIND       PRES   REMARKS
MINNEAPOLIS    PTSUNNY   78  66  66 S7        30.03F
INTNL FALLS    LGT RAIN  65  64  97 S8        29.97F
DULUTH         LGT RAIN  64  62  93 S3        30.06F
RED WING       FAIR      75  61  60 S6        30.06F
REDWOOD FALLS  CLOUDY    74  67  78 S15       29.98F
MANKATO        FAIR      77  66  68 S13       30.05S
WORTHINGTON    CLOUDY    72  65  78 S13       30.03F
FAIRMONT       CLOUDY    73  67  81 S13       30.06R
$$

...SOUTHWEST WISCONSIN...


CITY           SKY/WX    TMP DP  RH WIND       PRES   REMARKS
LA CROSSE      FAIR      74  59  59 S14       30.11S
PRAIRIE DU CHI FAIR      71  59  64 CALM      30.13F
BOSCOBEL       FAIR      74  63  68 CALM      30.13F
LONE ROCK      NOT AVBL
PLATTEVILLE    FAIR      70  61  72 SE8       30.17F
FORT MC COY    FAIR      74  60  61 S7        30.13F
MAUSTON-NEW LI FAIR      72  60  66 S8        30.14F
VIROQUA        FAIR      71  60  67 S8        30.15S
WIS DELLS      FAIR      72  53  52 S9        30.16F
$$

...ELSEWHERE IN WISCONSIN...


CITY           SKY/WX    TMP DP  RH WIND       PRES   REMARKS
MILWAUKEE      FAIR      73  55  53 S8        30.20F
MADISON        FAIR      71  56  58 S8        30.17F
GREEN BAY      PTSUNNY   72  53  51 SW8       30.17S
EAU CLAIRE     FAIR      75  63  66 S7        30.08F
BLACK RVR FLS  FAIR      72  59  64 CALM      30.12F
MEDFORD        FAIR      70  59  68 S10       30.14S
WAUSAU         FAIR      72  60  66 S10       30.13F
WIS RAPIDS     FAIR      73  59  61 S9        30.16S
MARSHFIELD     FAIR      71  61  70 S8        30.13F
RICE LAKE      PTSUNNY   71  62  75 CALM      30.11R
$$

...NORTHEAST IOWA...


CITY           SKY/WX    TMP DP  RH WIND       PRES   REMARKS
WATERLOO       FAIR      75  63  66 S12       30.10F
DUBUQUE        FAIR      71  58  63 S9        30.16F
DECORAH        FAIR      73  61  64 S7G13     30.12S
MASON CITY     PTSUNNY   72  67  84 S12       30.10F
CHARLES CITY   NOT AVBL
OELWEIN        FAIR      75  61  60 S12       30.13F
$$

...ELSEWHERE IN IOWA...


CITY           SKY/WX    TMP DP  RH WIND       PRES   REMARKS
DES MOINES     PTSUNNY   76  67  73 S8        30.08F
IOWA CITY      FAIR      74  61  63 S7        30.15F
FORT DODGE     NOT AVBL
MARSHALLTOWN   SUNNY     75  67  76 SE12      30.10S
CEDAR RAPIDS   FAIR      75  60  59 S9        30.13F
$$

...NORTHERN ILLINOIS...


CITY           SKY/WX    TMP DP  RH WIND       PRES   REMARKS
CHICAGO-OHARE  FAIR      74  54  49 S9        30.19F
CHICAGO-MIDWAY FAIR      74  56  53 S7        30.21S
MOLINE         FAIR      77  61  57 S8        30.14F
ROCKFORD       FAIR      73  58  59 S7        30.19F
PEORIA         FAIR      76  60  57 S9        30.18F
$$

NOTE: "FAIR" INDICATES FEW OR NO CLOUDS BELOW 12,000 FEET WITH NO
SIGNIFICANT WEATHER AND/OR OBSTRUCTIONS TO VISIBILITY. WIND
SPEEDS ARE IN MILES-PER-HOUR.




USA.gov is the U.S. government's official web portal to all federal, state and local government web resources and services.